EW2067 Weather Reports


time (UTC)temp
C
wind
direction
speed
KPH
gust
KPH
rain 1hr
cm
rain 24hr
cm
rain mn
cm
humidity
%
barometer
mb
20260505063750 16 191 0.0 0.0 0.00 0.00 0.00 50 1009.0
20260505063244 15 176 0.0 0.0 0.00 0.00 0.00 52 1009.0
20260505062738 15 190 0.0 0.0 0.00 0.00 0.00 53 1009.1
20260505062232 15 166 0.0 0.0 0.00 0.00 0.00 53 1009.2
20260505061726 15 151 0.0 0.0 0.00 0.00 0.00 53 1009.2
20260505061220 15 167 0.0 0.0 0.00 0.00 0.00 52 1009.2
20260505060714 15 141 0.0 0.0 0.00 0.00 0.00 51 1009.0
20260505060208 15 145 0.0 0.0 0.00 0.00 0.00 51 1009.0
20260505055702 15 149 0.0 0.0 0.00 0.00 0.00 50 1009.0
20260505055156 15 158 0.0 0.0 0.00 0.00 0.00 50 1008.9
20260505054650 14 171 0.0 0.0 0.00 0.00 0.00 50 1008.9
20260505054144 14 171 0.0 0.0 0.00 0.00 0.00 50 1008.8
20260505053638 14 171 0.0 0.0 0.00 0.00 0.00 50 1008.8
20260505053132 14 209 0.0 0.0 0.00 0.00 0.00 50 1008.9
20260505052626 14 242 0.0 0.0 0.00 0.00 0.00 50 1008.7
20260505052120 14 243 0.0 0.0 0.00 0.00 0.00 51 1008.6
20260505051614 14 165 0.0 0.0 0.00 0.00 0.00 48 1008.6
20260505051108 14 148 0.0 0.0 0.00 0.00 0.00 48 1008.4
20260505050602 14 155 0.0 0.0 0.00 0.00 0.00 48 1008.4
20260505041502 14 146 0.0 0.0 0.00 0.00 0.00 49 1008.3
20260505040956 14 151 0.0 0.0 0.00 0.00 0.00 49 1008.3
20260505040450 14 136 0.0 0.0 0.00 0.00 0.00 49 1008.2
20260505035944 14 134 0.0 0.0 0.00 0.00 0.00 49 1008.2
20260505035438 14 133 0.0 0.0 0.00 0.00 0.00 49 1008.1
20260505034932 15 133 0.0 0.0 0.00 0.00 0.00 48 1008.1
20260505034426 15 133 0.0 0.0 0.00 0.00 0.00 47 1008.1
20260505033920 15 130 0.0 0.0 0.00 0.00 0.00 47 1008.0
20260505033414 15 136 0.0 0.0 0.00 0.00 0.00 46 1007.9
20260505032908 15 133 0.0 0.0 0.00 0.00 0.00 46 1007.9
20260505032402 15 142 0.0 0.0 0.00 0.00 0.00 46 1007.8
20260505031856 15 136 0.0 0.0 0.00 0.00 0.00 46 1007.7
20260505031350 15 154 0.0 0.0 0.00 0.00 0.00 46 1007.6
20260505030844 15 151 0.0 0.0 0.00 0.00 0.00 45 1007.6
20260505030338 15 160 0.0 0.0 0.00 0.00 0.00 45 1007.6
20260505025832 15 136 0.0 0.0 0.00 0.00 0.00 46 1007.4
20260505025326 15 140 0.0 0.0 0.00 0.00 0.00 47 1007.4
20260505024820 15 144 0.0 0.0 0.00 0.00 0.00 47 1007.4
20260505024314 15 157 0.0 0.0 0.00 0.00 0.00 48 1007.3
20260505023808 15 170 0.0 0.0 0.00 0.00 0.00 48 1007.3
20260505023302 15 160 0.0 0.0 0.00 0.00 0.00 46 1007.2
20260505022756 15 164 0.0 0.0 0.00 0.00 0.00 47 1007.2
20260505022250 16 164 0.0 0.0 0.00 0.00 0.00 47 1007.2
20260505021744 15 164 0.0 0.0 0.00 0.00 0.00 48 1007.2
20260505021238 15 164 0.0 0.0 0.00 0.00 0.00 49 1007.1
20260505020732 15 165 0.0 0.0 0.00 0.00 0.00 50 1007.0
20260505020226 16 209 0.0 0.0 0.00 0.00 0.00 49 1007.0
20260505015720 17 305 0.0 0.0 0.00 0.00 0.00 44 1006.9
20260505015214 17 307 0.0 0.0 0.00 0.00 0.00 45 1006.9
20260505014708 17 307 0.0 0.0 0.00 0.00 0.00 45 1006.9
20260505014202 17 307 0.0 0.0 0.00 0.00 0.00 45 1006.9
20260505013656 18 307 0.0 0.0 0.00 0.00 0.00 41 1006.9
20260505013150 18 307 0.0 0.0 0.00 0.00 0.00 39 1006.9
20260505012644 18 307 0.0 0.0 0.00 0.00 0.00 38 1006.8
20260505012138 18 307 0.0 0.0 0.00 0.00 0.00 37 1006.8
20260505011632 18 307 0.0 0.0 0.00 0.00 0.00 38 1006.9
20260505011126 19 307 0.0 0.0 0.00 0.00 0.00 36 1007.0
20260505010620 19 307 0.0 0.0 0.00 0.00 0.00 33 1007.0
20260505010114 19 307 0.0 0.0 0.00 0.00 0.00 33 1007.0
20260505005608 19 307 0.0 0.0 0.00 0.00 0.00 35 1007.0
20260505005102 19 307 0.0 0.0 0.00 0.00 0.00 34 1007.1
20260505004556 19 307 0.0 0.0 0.00 0.00 0.00 34 1007.3
20260505004050 19 307 0.0 0.0 0.00 0.00 0.00 34 1007.3
20260505003544 19 303 0.0 0.0 0.00 0.00 0.00 33 1007.3
20260505003038 19 300 0.0 0.0 0.00 0.00 0.00 34 1007.5
20260505000956 19 319 0.0 0.0 0.00 0.00 0.00 35 1007.5
20260505000450 19 343 0.0 0.0 0.00 0.00 0.00 35 1007.5
20260504235944 19 335 0.0 0.0 0.00 0.00 0.00 33 1007.5
20260504235438 20 341 0.0 0.0 0.00 0.00 0.00 34 1007.4
20260504234932 20 336 0.0 0.0 0.00 0.00 0.00 33 1007.3
20260504234426 20 340 0.0 0.0 0.00 0.00 0.00 34 1007.2
20260504233920 20 341 0.0 0.0 0.00 0.00 0.00 34 1007.0
20260504233414 20 339 0.0 0.0 0.00 0.00 0.00 34 1007.0
20260504232908 21 343 0.0 0.0 0.00 0.00 0.00 33 1006.8
20260504232402 22 333 0.0 0.0 0.00 0.00 0.00 31 1006.8
20260504231344 24 296 0.0 0.0 0.00 0.00 0.00 21 1006.4
20260504230838 24 320 0.0 0.0 0.00 0.00 0.00 21 1006.3
20260504230332 25 263 0.0 0.0 0.00 0.00 0.00 22 1006.3
20260504225826 25 263 0.0 0.0 0.00 0.00 0.00 23 1006.4
20260504225320 25 263 0.0 0.0 0.00 0.00 0.00 21 1006.4
20260504224814 24 263 0.0 0.0 0.00 0.00 0.00 22 1006.4
20260504224308 24 263 0.0 0.0 0.00 0.00 0.00 20 1006.4
20260504223802 24 255 0.0 0.0 0.00 0.00 0.00 21 1006.4
20260504223256 24 178 0.0 0.0 0.00 0.00 0.00 23 1006.3
20260504222750 24 198 0.0 0.0 0.00 0.00 0.00 23 1006.3
20260504222244 24 201 0.0 0.0 0.00 0.00 0.00 21 1006.3
20260504221738 23 202 0.0 0.0 0.00 0.00 0.00 21 1006.4
20260504221232 23 202 0.0 0.0 0.00 0.00 0.00 21 1006.5
20260504220726 24 203 0.0 0.0 0.00 0.00 0.00 21 1006.5
20260504220220 24 323 0.0 0.0 0.00 0.00 0.00 20 1006.6
20260504215714 23 323 0.0 0.0 0.00 0.00 0.00 20 1006.7
20260504215208 23 257 0.0 0.0 0.00 0.00 0.00 21 1006.8
20260504214702 23 223 0.0 0.0 0.00 0.00 0.00 23 1006.9
20260504214156 23 223 0.0 0.0 0.00 0.00 0.00 21 1007.0
20260504213650 23 223 0.0 0.0 0.00 0.00 0.00 21 1007.0
20260504213144 23 161 0.0 0.0 0.00 0.00 0.00 26 1007.1
20260504212638 23 152 0.0 0.0 0.00 0.00 0.00 27 1007.2
20260504212132 23 152 0.0 0.0 0.00 0.00 0.00 26 1007.2
20260504211626 23 187 0.0 0.0 0.00 0.00 0.00 27 1007.3
20260504211120 23 69 0.0 0.0 0.00 0.00 0.00 25 1007.3
20260504210614 23 76 0.0 0.0 0.00 0.00 0.00 26 1007.3
20260504210108 23 76 0.0 0.0 0.00 0.00 0.00 25 1007.4
20260504205602 23 323 0.0 0.0 0.00 0.00 0.00 27 1007.5
20260504205056 23 320 0.0 0.0 0.00 0.00 0.00 26 1007.6
20260504204550 23 334 0.0 0.0 0.00 0.00 0.00 27 1007.6
20260504204044 23 333 0.0 0.0 0.00 0.00 0.00 27 1007.7
20260504203538 23 333 0.0 0.0 0.00 0.00 0.00 27 1007.7
20260504203032 23 344 0.0 0.0 0.00 0.00 0.00 30 1007.6
20260504202526 23 334 0.0 0.0 0.00 0.00 0.00 27 1007.7
20260504202020 23 289 0.0 0.0 0.00 0.00 0.00 26 1007.7
20260504201514 23 285 0.0 0.0 0.00 0.00 0.00 26 1007.8
20260504201008 23 284 0.0 0.0 0.00 0.00 0.00 26 1008.0
20260504200502 23 312 0.0 0.0 0.00 0.00 0.00 26 1008.0
20260504195956 23 314 0.0 0.0 0.00 0.00 0.00 28 1008.0
20260504195450 22 324 0.0 0.0 0.00 0.00 0.00 29 1008.1
20260504194944 22 326 0.0 0.0 0.00 0.00 0.00 27 1008.1
20260504194438 22 305 0.0 0.0 0.00 0.00 0.00 28 1008.1
20260504193932 22 204 0.0 0.0 0.00 0.00 0.00 30 1008.2
20260504193426 22 35 0.0 0.0 0.00 0.00 0.00 29 1008.2
20260504192920 22 330 0.0 0.0 0.00 0.00 0.00 28 1008.3
20260504192414 22 334 0.0 0.0 0.00 0.00 0.00 27 1008.4
20260504191908 22 345 0.0 0.0 0.00 0.00 0.00 30 1008.4
20260504191402 22 321 0.0 0.0 0.00 0.00 0.00 30 1008.5
20260504190856 22 324 0.0 0.0 0.00 0.00 0.00 29 1008.6
20260504190350 22 318 0.0 0.0 0.00 0.00 0.00 29 1008.6
20260504185844 21 324 0.0 0.0 0.00 0.00 0.00 30 1008.7
20260504185337 21 324 0.0 0.0 0.00 0.00 0.00 31 1008.9
20260504184832 21 319 0.0 0.0 0.00 0.00 0.00 32 1009.0
20260504184326 21 317 0.0 0.0 0.00 0.00 0.00 32 1009.0
20260504183819 21 315 0.0 0.0 0.00 0.00 0.00 33 1009.1
20260504183314 21 334 0.0 0.0 0.00 0.00 0.00 35 1009.2
20260504182808 21 354 0.0 0.0 0.00 0.00 0.00 33 1009.2
20260504182304 20 358 0.0 0.0 0.00 0.00 0.00 35 1009.3
20260504181756 20 341 0.0 0.0 0.00 0.00 0.00 35 1009.4
20260504181250 20 338 0.0 0.0 0.00 0.00 0.00 37 1009.5
20260504180743 20 339 0.0 0.0 0.00 0.00 0.00 36 1009.5
20260504180237 19 339 0.0 0.0 0.00 0.00 0.00 38 1009.7
20260504175732 19 339 0.0 0.0 0.00 0.00 0.00 38 1009.7
20260504175225 18 337 0.0 0.0 0.00 0.00 0.00 39 1009.8
20260504174720 18 337 0.0 0.0 0.00 0.00 0.00 38 1009.8
20260504174214 18 345 0.0 0.0 0.00 0.00 0.00 40 1009.9
20260504173708 18 343 0.0 0.0 0.00 0.00 0.00 41 1009.9
20260504173201 18 347 0.0 0.0 0.00 0.00 0.00 40 1009.9
20260504172655 18 319 0.0 0.0 0.00 0.00 0.00 39 1010.0
20260504172150 18 339 0.0 0.0 0.00 0.00 0.00 39 1010.1
20260504171643 18 339 0.0 0.0 0.00 0.00 0.00 40 1010.1
20260504171137 17 339 0.0 0.0 0.00 0.00 0.00 39 1010.2
20260504170632 17 338 0.0 0.0 0.00 0.00 0.00 41 1010.2
20260504170125 17 338 0.0 0.0 0.00 0.00 0.00 42 1010.2
20260504150913 12 249 0.0 0.0 0.00 0.00 0.00 50 1010.8
20260504150407 12 249 0.0 0.0 0.00 0.00 0.00 50 1010.8
20260504141307 8 298 0.0 0.0 0.00 0.00 0.00 38 1011.4
20260504140801 8 298 0.0 0.0 0.00 0.00 0.00 29 1011.5
20260504140255 7 298 0.0 0.0 0.00 0.00 0.00 29 1011.6
20260504130649 5 319 0.0 0.0 0.00 0.00 0.00 49 1012.1
20260504130143 5 320 0.0 0.0 0.00 0.00 0.00 49 1012.1
20260504110425 5 175 0.0 0.0 0.00 0.00 0.00 45 1011.9
20260504100313 7 133 0.0 0.0 0.00 0.00 0.00 55 1011.3
20260504081607 12 131 0.0 0.0 0.00 0.00 0.00 36 1010.8
20260504081101 12 130 0.0 0.0 0.00 0.00 0.00 36 1010.9
20260504080555 12 151 0.0 0.0 0.00 0.00 0.00 35 1010.9